[[{"header":{"parameterUnit":"m.s-1","parameterCategory":1,"la1":30.2991,"la2":30.254,"lo1":-89.0895,"lo2":-89.0444,"dy":0.0017,"dx":0.0017,"nx":28,"ny":28,"refTime":"2025-08-07T09:00:00:Z","depth":0,"parameterNumber":2,"parameterNumberName":"U-component_of_WINDS"},"data":[0,0,0,0,0,0,0,0,0,0,0,0,0,0,0,0,0,0,0,0,0,0,0,0,0,0,0,0,0,0,0,0,0,0,0,0,0,0,0,0,0,0,0,0,0,0,0,0,0,0,0,0,0,0,0,0,0,0,1.273,1.2731,0,1.2805,1.2805,1.2806,1.2789,1.2788,1.2787,1.2785,1.2859,1.2863,1.2866,0,0,0,0,0,0,0,0,0,0,0,0,0,1.2571,1.2574,1.273,1.2731,1.2732,1.2804,1.2805,1.2806,1.279,1.2788,1.2786,1.2785,1.2858,1.2862,1.2866,0,0,0,0,0,0,0,0,0,0,0,0,0,1.2642,1.2575,1.273,1.2732,1.2733,1.2804,1.2805,1.2807,1.279,1.2788,1.2786,1.2784,1.2857,1.2862,1.2867,1.2939,0,0,1.2882,1.2884,0,0,0,0,0,0,0,0,1.2638,1.2648,1.2731,1.2732,1.2733,1.2786,1.2777,1.2851,1.279,1.2768,1.2785,1.2783,1.2836,1.2843,1.2861,1.2943,1.2946,1.2882,1.2885,1.2887,1.2889,0,0,0,0,0,0,0,1.2634,1.2645,1.2759,1.2732,1.2734,1.2729,1.2737,1.2791,1.2813,1.277,1.2769,1.2778,1.2837,1.2857,1.2863,1.2947,1.2882,1.2886,1.289,1.2891,1.3091,1.3094,0,0,0,0,0,0,1.2628,1.2641,1.2757,1.2762,1.268,1.2734,1.2742,1.2771,1.2813,1.2817,1.278,1.2777,1.2849,1.2857,1.2866,1.2953,1.2887,1.2892,1.2895,1.3089,1.3092,1.3094,0,0,0,0,0,0,1.2624,1.2638,1.2754,1.2701,1.2715,1.2739,1.2771,1.2773,1.2793,1.282,1.2824,1.2796,1.2848,1.2859,1.2921,1.2955,1.2894,1.2899,1.3086,1.309,1.3093,1.3128,0,0,0,0,0,0,1.262,1.2637,1.2665,1.2702,1.2718,1.2809,1.2773,1.2776,1.2802,1.2799,1.2836,1.2841,1.2847,1.2914,1.2926,1.2961,1.2902,1.3083,1.3088,1.3092,1.3124,1.3132,1.3139,0,0,0,0,0,1.2614,1.2672,1.2667,1.2681,1.2754,1.2811,1.282,1.2827,1.2805,1.2833,1.285,1.2839,1.295,1.292,1.2934,1.2971,1.3081,1.3087,1.3092,1.312,1.313,1.3139,0,0,0,0,0,0,1.2637,1.2676,1.2671,1.2742,1.2774,1.2808,1.2843,1.2838,1.2875,1.2871,1.2877,1.2886,1.2949,1.2967,1.2933,1.3043,1.3012,1.302,1.3029,1.3039,1.3047,1.304,1.2907,0,0,0,0,0,1.2651,1.2694,1.2726,1.2785,1.2801,1.282,1.2845,1.2848,1.288,1.2893,1.2914,1.2946,1.2987,1.3014,1.3054,1.3127,1.3134,1.3159,1.3166,1.3173,1.3179,1.3218,1.3229,1.3112,1.3112,1.3112,0,0,1.2679,1.2705,1.2732,1.2791,1.2815,1.2859,1.2831,1.2879,1.2911,1.29,1.296,1.2977,1.3012,1.308,1.3111,1.3096,1.3213,1.3179,1.3184,1.3187,1.3224,1.3235,1.3245,1.3115,1.3115,1.3114,0,0,1.2752,1.2777,1.2829,1.2855,1.2892,1.2904,1.2917,1.2953,1.2964,1.3025,1.3017,1.3056,1.3128,1.3153,1.3175,1.3259,1.325,1.3272,1.3312,1.335,1.3359,1.3367,1.3396,1.3406,1.3279,1.3279,1.3279,0,1.2781,1.2848,1.2856,1.2905,1.2931,1.2924,1.2976,1.3,1.3049,1.3066,1.305,1.314,1.3163,1.3236,1.3257,1.3276,1.3289,1.3267,1.3357,1.3365,1.3373,1.34,1.3411,1.3281,1.3281,1.3281,1.3281,0,1.2882,1.2929,1.2966,1.3014,1.3044,1.3095,1.311,1.314,1.314,1.3154,1.3216,1.3244,1.3289,1.3307,1.3308,1.3381,1.337,1.3356,1.3324,1.3386,1.3412,1.3423,1.3285,1.3284,1.3283,1.3282,0,0,1.2969,1.3023,1.3036,1.3058,1.31,1.3135,1.3186,1.3231,1.3255,1.329,1.3331,1.3393,1.338,1.3405,1.3409,1.3442,1.3506,1.3423,1.3424,1.3436,1.3586,1.3596,1.3608,1.3501,1.3503,1.3505,1.3583,0,1.3045,1.3134,1.3143,1.3223,1.3265,1.326,1.3304,1.3334,1.3349,1.3386,1.3402,1.3445,1.3425,1.3441,1.3474,1.3491,1.3536,1.3486,1.3538,1.354,1.3528,1.3621,1.3632,1.3704,1.3593,1.3595,1.3596,0,1.3145,1.3183,1.3266,1.3303,1.3321,1.336,1.3402,1.3439,1.3473,1.3481,1.351,1.351,1.3561,1.353,1.36,1.3566,1.3588,1.36,1.3603,1.3606,1.357,1.3626,1.3727,1.3737,1.3612,1.3611,1.361,0,1.3198,1.3271,1.333,1.3349,1.3393,1.342,1.344,1.3472,1.3499,1.3536,1.3553,1.3595,1.3618,1.365,1.3661,1.3638,1.373,1.37,1.3737,1.3737,1.3755,1.3754,1.386,1.3773,1.3773,1.3773,1.3772,0,1.328,1.3331,1.3354,1.3391,1.3448,1.3458,1.3514,1.3532,1.3561,1.3601,1.3599,1.3636,1.3649,1.3688,1.3697,1.3752,1.3763,1.377,1.3772,1.3769,1.3768,1.3783,1.3777,1.3776,1.3775,1.3774,1.3774,0,1.3349,1.3367,1.3431,1.3468,1.3479,1.3519,1.355,1.3585,1.36,1.3649,1.3662,1.3685,1.373,1.3745,1.38,1.3806,1.3871,1.3869,1.3859,1.3859,1.3895,1.3891,1.4012,1.4028,1.3933,1.3934,1.3934,0,1.3399,1.3438,1.348,1.3507,1.3528,1.3571,1.3598,1.3611,1.3639,1.3682,1.3711,1.3757,1.3793,1.3867,1.3887,1.3929,1.3927,1.3967,1.3933,1.393,1.3926,1.3922,1.3926,1.3972,1.3973,1.3974,1.3975,0,1.3486,1.3493,1.3533,1.3577,1.361,1.3645,1.3678,1.37,1.3717,1.375,1.3797,1.3825,1.3882,1.3927,1.397,1.3989,1.3984,1.3986,1.3996,1.3993,1.3986,1.3989,1.3874,1.3982,1.3982,1.3981,1.3981,1.398,1.3546,1.358,1.3615,1.366,1.3687,1.3719,1.3753,1.3773,1.3813,1.386,1.3866,1.3916,1.3949,1.4007,1.4029,1.4068,1.4056,1.4072,1.4075,1.4078,1.4081,1.3981,1.4076,1.4075,1.4075,1.4075,1.4075,0,1.3631,1.3654,1.3695,1.3743,1.3778,1.3773,1.381,1.3839,1.3884,1.3916,1.3953,1.4007,1.4051,1.4076,1.4119,1.4146,1.4145,1.4156,1.4153,1.4158,1.4089,1.4075,1.4157,1.4156,1.4156,1.4156,1.4156,1.4156,1.368,1.3738,1.3749,1.382,1.3843,1.3893,1.3914,1.3943,1.3969,1.403,1.4066,1.4083,1.4112,1.4158,1.4198,1.4204,1.4219,1.4232,1.4236,1.4171,1.4163,1.4155,1.4141,1.4235,1.4236,1.4302,1.4302,1.4303]},{"header":{"parameterUnit":"m.s-1","parameterCategory":1,"la1":30.2991,"la2":30.254,"lo1":-89.0895,"lo2":-89.0444,"dy":0.0017,"dx":0.0017,"nx":28,"ny":28,"refTime":"2025-08-07T09:00:00:Z","depth":0,"parameterNumber":3,"parameterNumberName":"V-component_of_WINDS"},"data":[0,0,0,0,0,0,0,0,0,0,0,0,0,0,0,0,0,0,0,0,0,0,0,0,0,0,0,0,0,0,0,0,0,0,0,0,0,0,0,0,0,0,0,0,0,0,0,0,0,0,0,0,0,0,0,0,0,0,1.5347,1.5347,0,1.5363,1.5363,1.5363,1.5347,1.5346,1.5346,1.5345,1.5359,1.536,1.5361,0,0,0,0,0,0,0,0,0,0,0,0,0,1.5298,1.5299,1.5347,1.5347,1.5347,1.5363,1.5363,1.5363,1.5347,1.5346,1.5345,1.5345,1.5359,1.536,1.5361,0,0,0,0,0,0,0,0,0,0,0,0,0,1.5317,1.53,1.5347,1.5341,1.5341,1.5362,1.5363,1.5363,1.5347,1.5346,1.5345,1.5344,1.5358,1.536,1.5361,1.5388,0,0,1.5365,1.5366,0,0,0,0,0,0,0,0,1.5316,1.5319,1.5342,1.5342,1.5341,1.5352,1.5351,1.5371,1.5347,1.5345,1.5345,1.5344,1.5357,1.5359,1.5364,1.5389,1.539,1.5366,1.5366,1.5367,1.5367,0,0,0,0,0,0,0,1.5315,1.5318,1.5353,1.5342,1.5342,1.5336,1.5338,1.5355,1.5356,1.5345,1.5344,1.5346,1.5357,1.5362,1.5364,1.539,1.5366,1.5367,1.5368,1.5368,1.5434,1.5434,0,0,0,0,0,0,1.5315,1.5317,1.5353,1.5353,1.5326,1.5338,1.534,1.5349,1.5356,1.5356,1.5347,1.5345,1.536,1.5362,1.5364,1.5394,1.5367,1.5368,1.5369,1.5433,1.5434,1.5435,0,0,0,0,0,0,1.5314,1.5318,1.5352,1.5335,1.5339,1.534,1.5351,1.535,1.5356,1.5357,1.5357,1.5352,1.536,1.5362,1.5382,1.5394,1.5369,1.537,1.5432,1.5433,1.5434,1.5455,0,0,0,0,0,0,1.5313,1.5318,1.533,1.5336,1.534,1.5371,1.5351,1.5351,1.5358,1.5356,1.5362,1.5362,1.5359,1.538,1.5383,1.5395,1.5371,1.5431,1.5432,1.5434,1.5453,1.5456,1.546,0,0,0,0,0,1.5311,1.5335,1.533,1.5335,1.5355,1.5372,1.5374,1.537,1.536,1.537,1.537,1.5362,1.5392,1.5382,1.5386,1.5399,1.543,1.5432,1.5434,1.5451,1.5456,1.546,0,0,0,0,0,0,1.5332,1.5336,1.5331,1.5358,1.5364,1.5369,1.5383,1.5376,1.5385,1.5383,1.5377,1.5378,1.5398,1.54,1.5389,1.5423,1.5409,1.5412,1.5421,1.5425,1.5429,1.5427,1.5373,0,0,0,0,0,1.5339,1.5353,1.5356,1.538,1.5383,1.5382,1.5389,1.5386,1.5392,1.5394,1.5396,1.5402,1.5412,1.5419,1.5429,1.5453,1.5452,1.5463,1.5467,1.547,1.5472,1.5481,1.5485,1.5441,1.5441,1.5441,0,0,1.5355,1.536,1.5369,1.5384,1.5389,1.5401,1.5385,1.54,1.5409,1.5397,1.5414,1.5416,1.5421,1.5442,1.5451,1.5444,1.5483,1.5472,1.5474,1.5475,1.5483,1.5488,1.5491,1.5443,1.5442,1.5442,0,0,1.5391,1.5397,1.5415,1.5419,1.5426,1.5424,1.5429,1.5433,1.5434,1.5451,1.5441,1.5451,1.547,1.5472,1.5477,1.5509,1.55,1.5512,1.5529,1.5538,1.5542,1.5545,1.5554,1.5557,1.5514,1.5514,1.5514,0,1.541,1.543,1.5426,1.544,1.5446,1.5435,1.5452,1.5456,1.5465,1.5468,1.546,1.5481,1.5484,1.5504,1.5511,1.5516,1.5518,1.5511,1.5542,1.5545,1.5547,1.5556,1.5559,1.5516,1.5515,1.5515,1.5515,0,1.5451,1.5465,1.5479,1.5487,1.5494,1.551,1.5506,1.5514,1.5508,1.5507,1.5523,1.5526,1.5534,1.5539,1.5534,1.5557,1.5552,1.5543,1.5529,1.5553,1.556,1.5564,1.5517,1.5517,1.5516,1.5516,0,0,1.5502,1.5505,1.551,1.5512,1.5517,1.5526,1.554,1.5548,1.5553,1.5559,1.5569,1.5583,1.5574,1.5578,1.5574,1.5582,1.5603,1.5572,1.5572,1.5576,1.5624,1.563,1.5634,1.5598,1.5598,1.5599,1.5623,0,1.5535,1.556,1.5555,1.5578,1.5589,1.5576,1.5588,1.5591,1.5589,1.5596,1.5594,1.5603,1.5592,1.5594,1.5602,1.5599,1.5613,1.5598,1.5605,1.5605,1.5603,1.5638,1.5645,1.5668,1.5626,1.5627,1.5627,0,1.5578,1.5584,1.5609,1.5608,1.5612,1.5623,1.5628,1.5636,1.5638,1.5635,1.5639,1.5631,1.5642,1.5628,1.5642,1.5631,1.5633,1.5632,1.5633,1.5633,1.5617,1.5637,1.5675,1.5678,1.5632,1.5632,1.5632,0,1.5609,1.5624,1.5639,1.5642,1.5642,1.5649,1.565,1.565,1.5654,1.5658,1.566,1.5665,1.5668,1.5671,1.5664,1.5655,1.5677,1.5663,1.5674,1.5674,1.5679,1.5678,1.5716,1.5683,1.5683,1.5683,1.5683,0,1.5646,1.5661,1.5653,1.5662,1.5677,1.5669,1.5684,1.5683,1.5683,1.569,1.568,1.5687,1.5678,1.5683,1.5678,1.5688,1.569,1.5687,1.5685,1.5687,1.5687,1.5688,1.5686,1.5684,1.5683,1.5683,1.5683,0,1.5683,1.5679,1.5694,1.5692,1.5692,1.5703,1.5701,1.5708,1.5704,1.5713,1.5715,1.5709,1.5715,1.5708,1.5713,1.5709,1.5723,1.5719,1.5722,1.572,1.5731,1.5729,1.5769,1.5773,1.5739,1.5739,1.5739,0,1.5707,1.5717,1.5716,1.572,1.5721,1.5728,1.5731,1.5723,1.5727,1.5727,1.5734,1.5738,1.5741,1.575,1.5745,1.5748,1.5744,1.5757,1.5744,1.5744,1.5741,1.574,1.574,1.576,1.576,1.5761,1.5761,0,1.5747,1.5743,1.5749,1.5753,1.5757,1.5759,1.5761,1.5765,1.5756,1.576,1.5765,1.5768,1.5772,1.5775,1.5776,1.5775,1.5765,1.5765,1.5767,1.5769,1.5769,1.5767,1.5728,1.5764,1.5764,1.5763,1.5763,1.5763,1.5776,1.5784,1.5783,1.5789,1.5789,1.579,1.5796,1.5792,1.5796,1.5799,1.5794,1.5799,1.5797,1.5798,1.5797,1.58,1.5794,1.5798,1.5798,1.5799,1.5799,1.5769,1.58,1.58,1.58,1.58,1.58,0,1.5814,1.5813,1.5818,1.582,1.5823,1.5814,1.5815,1.5818,1.5823,1.5822,1.5825,1.5829,1.5831,1.5826,1.5827,1.583,1.5826,1.5831,1.583,1.5829,1.5806,1.5803,1.5834,1.5834,1.5834,1.5834,1.5834,1.5834,1.5834,1.5846,1.5841,1.5851,1.5849,1.5855,1.5855,1.5855,1.5854,1.5859,1.5861,1.5857,1.5854,1.5854,1.5855,1.5853,1.5853,1.5859,1.5856,1.5834,1.5831,1.5828,1.5825,1.586,1.586,1.5878,1.5878,1.5878]}]]